STARLINK-5722, 55610

Orbit data source: Space-Track

STARLINK-5722, 55610 is a payload satellite owned by SpaceX/Seattle (US) in LEO that was launched on Sun, 12 Feb 2023 UTC via an FALCON 9 launch vehicle from the Air Force Eastern Test Range (AFETR). Payload-class satellites include a variety of spacecraft equipped with specific instruments for various scientific and technological missions. These include communications satellites like Starlink; space stations such as the ISS; scientific satellites like the Hubble; Earth observation satellites from companies like Planet Labs, Umbra, and HawkEye 360; GPS; miniature CubeSats for education and research; and military/defense satellites.

Loading next visibility...
Identifier
55610, 2023-020AT
Orbit
LEO
Country
Flag of USUS
Related business
Manufacturer
SpaceX/Seattle
Mission
Operational Commercial Communications
Bus & Motor
STARLINK, Unknown motor
Mass
305 kg wet, ~290 kg dry
Launch date (UTC)
2023-02-12 (3 years ago)
Launch vehicle
FALCON 9
Launch site
Air Force Eastern Test Range (AFETR)
Object type
Payload
Rocket body
Debris
Shape & HBR
Box + 1 Pan, 10.1 m
Radar Cross Section
13.562 m², Large (>1 m²)

Expand to show TLE details & history
Last TLE update: 14 hours ago

TLE from 14 hours ago
0 STARLINK-5722
1 55610U 23020AT  25340.72003592  .00000251  00000-0  33640-4 0  9994
2 55610  43.0038 136.8895 0001304 274.0021  86.0672 15.02535983155080
Epoch: 2025-12-06T17:16Z
TLE epoch observation values (Epoch: 2025-12-06T17:16:51.103Z)
Latitude
-0.00004°
Longitude
161.9328°
Altitude
558.796 km
Speed
7.584 km/s
True Right ascension
09h 07m 33s
True Declination
0° 00' 00"
Sunlit
Object was in full shadow at epoch
Visualization orbit readout
Latitude
Unknown
Longitude
Unknown
Altitude
Unknown
Speed
Unknown
Apparent Right ascension
Unknown
Apparent Declination
Unknown
Sunlit
N/A
Visualization observer readout
Local Sidereal Time
05:25:06
Azimuth
Unknown
Elevation
Unknown
Doppler factor
Unknown
Orbital elements
Apogee altitude
561.908 km
Perigee altitude
560.098 km
Semi-major axis
6,939.14 km
Eccentricity
0.00013
Inclination
43.0038°
RAAN
136.8895°
Arg. of periapsis
274.0021°
True anomaly
86.08211°
Mean anomaly
86.0672°
Eccentric anomaly
86.07465°
Mean motion
3.75478 °/min
Orbital period
95.88 mins
BSTAR
0.00003364
Loading maneuver chart data...
Computing Atmospheric mass density...
Loading historical data...
Loading historical data...
Loading historical data...
Loading historical data...
Loading historical data...
Loading historical data...
Loading historical data...

Documentation

Showing up to 5 results
|